This is the latest recevied weather packets stored in our database for station/object KF0WJA. If no packets are shown the sender has not sent any weather packets the latest 10 day(s).
| Time | Temp. | Humidity | Pressure | Rain* | Wind** | Luminosity | Snow |
|---|---|---|---|---|---|---|---|
| 1787576494 | 21.67° C | 70% | 1015.2 hPa | 0 mm | - | 94 W/m² | - |
| 1787576190 | 21.67° C | 71% | 1015 hPa | 0 mm | - | 84 W/m² | - |
| 1787575885 | 21.67° C | 71% | 1015.2 hPa | 0 mm | - | 81 W/m² | - |
| 1787575581 | 21.11° C | 71% | 1015.1 hPa | 0 mm | - | 79 W/m² | - |
| 1787575275 | 21.11° C | 71% | 1015.1 hPa | 0 mm | - | 79 W/m² | - |
| 1787574970 | 21.11° C | 71% | 1014.8 hPa | 0 mm | - | 74 W/m² | - |
| 1787574666 | 21.11° C | 71% | 1015 hPa | 0 mm | - | 67 W/m² | - |
| 1787574361 | 20.56° C | 72% | 1014.9 hPa | 0 mm | - | 52 W/m² | - |
| 1787574060 | 20.56° C | 72% | 1014.7 hPa | 0 mm | - | 39 W/m² | - |
| 1787573756 | 20.56° C | 72% | 1014.7 hPa | 0 mm | - | 30 W/m² | - |
| 1787573455 | 20.56° C | 71% | 1014.8 hPa | 0 mm | - | 20 W/m² | - |
| 1787573151 | 20.56° C | 71% | 1014.6 hPa | 0 mm | - | 13 W/m² | - |
| 1787572848 | 20.56° C | 71% | 1014.6 hPa | 0 mm | - | 8 W/m² | - |
| 1787572543 | 20.56° C | 71% | 1014.8 hPa | 0 mm | - | 3 W/m² | - |
| 1787572242 | 20.56° C | 71% | 1014.7 hPa | 0 mm | - | 0 W/m² | - |
| 1787571937 | 20.56° C | 70% | 1014.6 hPa | 0 mm | - | 0 W/m² | - |
| 1787571637 | 20.56° C | 70% | 1014.6 hPa | 0 mm | - | 0 W/m² | - |
| 1787571336 | 21.11° C | 69% | 1014.5 hPa | 0 mm | - | 0 W/m² | - |
| 1787571031 | 21.11° C | 69% | 1014.7 hPa | 0 mm | - | 0 W/m² | - |
| 1787570727 | 21.11° C | 68% | 1014.8 hPa | 0 mm | - | 0 W/m² | - |
| 1787570423 | 21.11° C | 68% | 1014.9 hPa | 0 mm | - | 0 W/m² | - |
| 1787570120 | 21.11° C | 68% | 1014.7 hPa | 0 mm | - | 0 W/m² | - |
| 1787569815 | 21.11° C | 68% | 1015.1 hPa | 0 mm | - | 0 W/m² | - |
| 1787569510 | 21.67° C | 67% | 1015.2 hPa | 0 mm | - | 0 W/m² | - |
| 1787569210 | 21.67° C | 67% | 1015.1 hPa | 0 mm | - | 0 W/m² | - |
* Rain latest hour (hover to see other rain measurements)
** Current wind speed in m/s (hover to see current wind gust speed)